Regional Weather Roundup
Issued by NWS

Home | Current Version | Previous Version | Graphics & Text | Print | Product List | Glossary On
Versions: 1 2 3 4 5 6 7 8 9 10 11 12 13 14 15 16 17 18 19 20 21 22 23 24 25 26 27 28 29 30 31 32 33 34 35 36 37 38 39 40 41 42 43 44 45 46 47 48 49 50
519
ASUS43 KBIS 211610
RWRND

NORTH DAKOTA REGIONAL WEATHER ROUNDUP
NATIONAL WEATHER SERVICE BISMARCK ND
1100 AM CDT MON AUG 21 2017

NOTE: "FAIR" INDICATES FEW OR NO CLOUDS BELOW 12,000 FEET WITH NO
SIGNIFICANT WEATHER AND/OR OBSTRUCTIONS TO VISIBILITY.


NDZ001>003-009>011-017-211700-
NORTHWEST NORTH DAKOTA

CITY           SKY/WX    TMP DP  RH WIND       PRES   REMARKS
WILLISTON      SUNNY     71  41  33 N21G28    30.06R
MINOT          CLOUDY    69  51  52 W14       29.95R
MINOT AFB      MOSUNNY   71  48  45 NW16      29.94R
$$

NDZ018>021-031>035-040>046-211700-
SOUTHWEST NORTH DAKOTA

CITY           SKY/WX    TMP DP  RH WIND       PRES   REMARKS
BISMARCK       SUNNY     70  56  61 W9        29.99R
DICKINSON      SUNNY     70  46  42 NW21      30.02R
GARRISON         N/A     68  52  56 NW15G22   29.96S
HETTINGER ARPT SUNNY     72  46  39 NW14      30.06R
$$

NDZ004>008-012>016-024-026-027-054-211700-
NORTHEAST NORTH DAKOTA

CITY           SKY/WX    TMP DP  RH WIND       PRES   REMARKS
GRAND FORKS    CLOUDY    67  53  61 S6        29.93F
GRND FRKS AFB  CLOUDY    67  51  57 S7        29.94F
DEVILS LAKE    CLOUDY    69  53  56 S10       29.95F
$$

NDZ022-023-025-028>030-036>039-047>053-211700-
SOUTHEAST NORTH DAKOTA

CITY           SKY/WX    TMP DP  RH WIND       PRES   REMARKS
FARGO          CLOUDY    67  58  72 SE9       29.95F
JAMESTOWN      CLOUDY    68  56  65 S12       29.94F
$$





USA.gov is the U.S. government's official web portal to all federal, state and local government web resources and services.